Regional Weather Roundup
Issued by NWS State College, PA

Home | Current Version | Previous Version | Text Only | Print | Product List | Glossary Off
Versions: 1 2 3 4 5 6 7 8 9 10 11 12 13 14 15 16 17 18 19 20 21 22 23 24 25 26 27 28 29 30 31 32 33 34 35 36 37 38 39 40 41 42 43 44 45 46 47 48 49 50

000
ASUS41 KCTP 221510
RWRCTP

REGIONAL WEATHER ROUNDUP
NATIONAL WEATHER SERVICE STATE COLLEGE PA
1100 AM EDT TUE AUG 22 2017

Note: "fair" indicates few or no clouds below 12,000 feet with no
significant weather and/or obstructions to visibility.

* = STATION THAT DOES NOT REPORT PRECIPITATION /E.G. RAIN...SNOW...ETC/
    THUNDER OR FOG.

PAZ002>004-007>009-013>016-020>023-029>032-221600-
WESTERN PENNSYLVANIA

CITY           SKY/WX    TMP DP  RH WIND       PRES   REMARKS
ERIE           PTSUNNY   82  68  62 SW15G26   29.84F
MEADVILLE      MOSUNNY   80  71  74 SW12G21   29.91F
FRANKLIN*      PTSUNNY   81  66  61 SW16G23   29.94F
NEW CASTLE     FAIR      82  71  69 VRB6G17   29.93F
BEAVER COUNTY  PTSUNNY   84  68  58 S16G23    29.95F
BUTLER*        MOSUNNY   81  70  69 SW12      29.97F
PITTSBURGH INT PTSUNNY   81  69  67 SW14G22   29.96F
PITTSBURGH     SUNNY     82  68  62 SW15G23   29.97F
INDIANA*       SUNNY     81  72  74 SW16G24   30.01F
LATROBE        SUNNY     82  72  69 W14       30.01F
WASHINGTON CO* MOSUNNY   81  70  69 SW6G17    29.99F
$$

PAZ004>006-010>012-017>019-024>028-033>037-041-042-045-046-049>053-221600-
CENTRAL PENNSYLVANIA

CITY           SKY/WX    TMP DP  RH WIND       PRES   REMARKS
BRADFORD       PTSUNNY   78  69  73 SW12G21   29.96F
DUBOIS         MOSUNNY   79  67  66 SW16G23   29.98F
CLEARFIELD     SUNNY     81  70  69 SW10      29.99F
JOHNSTOWN      MOSUNNY   79  68  69 SW12      30.05F
ALTOONA        SUNNY     80  71  74 S10       30.03F
STATE COLLEGE  MOSUNNY   79  70  73 S12       29.99F
WILLIAMSPORT   MOSUNNY   78  73  84 VRB3      29.95F
SELINSGROVE    SUNNY     82  73  74 SW7       29.97F
FT INDIANTOWN  PTSUNNY   75  73  94 W3        30.00F
CAPITAL CITY   SUNNY     83  72  69 E3        29.98F
HARRISBURG     SUNNY     83  74  74 SE5       29.98F
YORK           SUNNY     84  74  71 VRB3      29.99F
$$

PAZ038>040-043-044-047-048-054-055-060>062-067>071-221600-
EASTERN PENNSYLVANIA

CITY           SKY/WX    TMP DP  RH WIND       PRES   REMARKS
SCRANTON       SUNNY     82  71  69 VRB6      29.98F
MOUNT POCONO   SUNNY     79  68  69 SW12G18   30.05F
ALLENTOWN      SUNNY     82  72  71 CALM      29.99F
QUAKERTOWN*    PTSUNNY   77  73  88 S5        30.02F
READING        MOSUNNY   82  75  79 SW8       29.98F
LANCASTER      MOSUNNY   80  74  81 CALM      30.00F
COATESVILLE    MOSUNNY   81  75  83 VRB6      30.03F
POTTSTOWN      CLOUDY    77  74  90 VRB5      30.02F FOG
BLUE BELL      PTSUNNY   81  73  78 S3        30.01F
DOYLESTOWN     PTSUNNY   81  74  79 VRB6      30.00F
WILLOW GROVE   NOT AVBL
NORTH PHILA    PTSUNNY   83  74  74 VRB6      30.01F
PHILADELPHIA   MOSUNNY   84  74  71 S9        30.00S
$$




USA.gov is the U.S. government's official web portal to all federal, state and local government web resources and services.